User: anonymous   Login
Location: Alexandria
(38.8050°N, 77.0470°W)
Time: 04:19:38
(UTC-04:00)
Language:

KAITUO 1B - Orbit

View from above orbital plane
View from above orbital plane
View from above satellite
View from above satellite

Ground track
Ground track

The orbit data is extracted from the following two-line orbital elements,

1 40912U 15049P   18266.32179839 +.00000914 +00000-0 +46843-4 0  9993
2 40912 097.4522 272.2803 0016381 033.7164 090.5631 15.18976476166566
Epoch (UTC): 23 September 2018 07:43:23
Eccentricity: 0.0016381
inclination: 97.4522°
perigee height: 497 km
apogee height: 520 km
right ascension of ascending node: 272.2803°
argument of perigee: 33.7164°
revolutions per day: 15.18976476
mean anomaly at epoch: 90.5631°
orbit number at epoch: 16656

The dashed part of the orbit path shows where the satellite is in the earth's shadow,  

DLR